GW1685 Weather Reports


Display with metric or nautical units.
time (UTC)temp
F
wind
direction
speed
MPH
gust
MPH
rain 1hr
in
rain 24hr
in
rain mn
in
humidity
%
barometer
mb
20260510201502 55 282 11.0 15.0 0.00 0.00 0.00 42 1023.0
20260510200958 54 259 12.0 15.0 0.00 0.00 0.00 43 1023.0
20260510200454 55 297 7.0 8.0 0.00 0.00 0.00 43 1023.2
20260510195952 53 324 3.0 3.0 0.00 0.00 0.00 43 1022.9
20260510195450 55 340 8.0 12.0 0.00 0.00 0.00 43 1023.2
20260510194945 55 1 4.0 6.0 0.00 0.00 0.00 44 1023.2
20260510194441 55 58 4.0 5.0 0.00 0.00 0.00 43 1023.0
20260510193937 54 50 2.0 3.0 0.00 0.00 0.00 43 1023.1
20260510193432 53 259 8.0 9.0 0.00 0.00 0.00 45 1023.2
20260510192928 53 46 5.0 8.0 0.00 0.00 0.00 46 1023.2
20260510192423 53 278 5.0 6.0 0.00 0.00 0.00 47 1023.5
20260510191919 54 116 5.0 9.0 0.00 0.00 0.00 45 1023.1
20260510191415 53 18 7.0 8.0 0.00 0.00 0.00 43 1023.2
20260510190913 53 272 9.0 11.0 0.00 0.00 0.00 44 1023.2
20260510190410 53 325 9.0 12.0 0.00 0.00 0.00 45 1023.3
20260510185906 53 21 11.0 14.0 0.00 0.00 0.00 44 1023.3
20260510185404 53 61 4.0 5.0 0.00 0.00 0.00 45 1023.1
20260510184901 53 208 10.0 12.0 0.00 0.00 0.00 45 1023.3
20260510184358 52 50 5.0 6.0 0.00 0.00 0.00 45 1023.3
20260510183857 52 312 11.0 14.0 0.00 0.00 0.00 44 1023.1
20260510183355 52 266 9.0 12.0 0.00 0.00 0.00 45 1023.2
20260510182849 53 5 8.0 15.0 0.00 0.00 0.00 45 1023.2
20260510182346 51 67 2.0 3.0 0.00 0.00 0.00 44 1023.3
20260510181842 51 31 5.0 9.0 0.00 0.00 0.00 46 1023.1
20260510181340 52 288 11.0 14.0 0.00 0.00 0.00 43 1023.1
20260510180836 51 292 16.0 20.0 0.00 0.00 0.00 45 1023.3
20260510180333 52 221 12.0 14.0 0.00 0.00 0.00 45 1023.1
20260510175830 52 31 6.0 8.0 0.00 0.00 0.00 45 1023.2
20260510175326 52 280 17.0 25.0 0.00 0.00 0.00 44 1023.0
20260510174822 52 293 10.0 15.0 0.00 0.00 0.00 45 1023.0
20260510174320 51 349 10.0 11.0 0.00 0.00 0.00 46 1023.0
20260510173816 51 303 14.0 19.0 0.00 0.00 0.00 45 1022.9
20260510173312 51 338 9.0 12.0 0.00 0.00 0.00 45 1022.9
20260510172808 51 262 15.0 25.0 0.00 0.00 0.00 44 1022.9
20260510172306 51 317 11.0 19.0 0.00 0.00 0.00 46 1022.9
20260510171801 50 251 5.0 8.0 0.00 0.00 0.00 48 1023.0
20260510171258 51 26 7.0 9.0 0.00 0.00 0.00 45 1022.9
20260510170755 51 351 9.0 15.0 0.00 0.00 0.00 46 1022.9
20260510170251 51 8 13.0 20.0 0.00 0.00 0.00 45 1022.9
20260510165746 51 285 13.0 20.0 0.00 0.00 0.00 45 1022.8
20260510165243 50 165 4.0 5.0 0.00 0.00 0.00 47 1022.9
20260510164740 50 39 8.0 14.0 0.00 0.00 0.00 46 1022.9
20260510164237 50 321 14.0 20.0 0.00 0.00 0.00 46 1023.0
20260510163732 50 326 18.0 23.0 0.00 0.00 0.00 45 1023.2
20260510163228 52 330 11.0 14.0 0.00 0.00 0.00 45 1022.9
20260510162727 50 274 4.0 5.0 0.00 0.00 0.00 46 1022.7
20260510162225 50 97 7.0 11.0 0.00 0.00 0.00 46 1023.0
20260510161721 51 269 13.0 15.0 0.00 0.00 0.00 44 1022.9
20260510161217 51 350 16.0 20.0 0.00 0.00 0.00 46 1022.7
20260510160715 51 292 12.0 17.0 0.00 0.00 0.00 45 1022.6
20260510160210 50 274 11.0 12.0 0.00 0.00 0.00 47 1022.5
20260510155706 50 331 10.0 15.0 0.00 0.00 0.00 48 1022.6
20260510155202 50 270 9.0 17.0 0.00 0.00 0.00 46 1022.7
20260510154657 50 17 12.0 15.0 0.00 0.00 0.00 47 1022.6
20260510154153 50 327 7.0 8.0 0.00 0.00 0.00 46 1022.5
20260510153648 49 270 11.0 15.0 0.00 0.00 0.00 47 1022.5
20260510153146 50 282 21.0 31.0 0.00 0.00 0.00 46 1022.5
20260510152642 50 288 12.0 20.0 0.00 0.00 0.00 46 1022.6
20260510152138 50 27 8.0 11.0 0.00 0.00 0.00 46 1022.3
20260510151635 49 16 11.0 15.0 0.00 0.00 0.00 47 1022.5
20260510151133 49 279 7.0 8.0 0.00 0.00 0.00 49 1022.5
20260510150628 50 236 12.0 14.0 0.00 0.00 0.00 48 1022.5
20260510150124 49 238 12.0 15.0 0.00 0.00 0.00 48 1022.3
20260510145620 49 43 6.0 8.0 0.00 0.00 0.00 49 1022.1
20260510145117 48 269 10.0 14.0 0.00 0.00 0.00 49 1022.2
20260510144613 49 253 19.0 26.0 0.00 0.00 0.00 49 1022.5
20260510144109 49 315 14.0 20.0 0.00 0.00 0.00 50 1022.4
20260510143605 48 320 12.0 15.0 0.00 0.00 0.00 51 1022.2
20260510143101 49 340 17.0 26.0 0.00 0.00 0.00 51 1022.2
20260510142558 49 355 11.0 14.0 0.00 0.00 0.00 53 1022.1
20260510142055 48 304 14.0 17.0 0.00 0.00 0.00 55 1022.1
20260510141552 48 262 9.0 12.0 0.00 0.00 0.00 56 1022.2
20260510141050 48 348 12.0 19.0 0.00 0.00 0.00 56 1022.2
20260510140546 47 337 7.0 9.0 0.00 0.00 0.00 57 1022.2
20260510140045 46 301 10.0 12.0 0.00 0.00 0.00 59 1021.9
20260510135541 47 306 7.0 9.0 0.00 0.00 0.00 60 1022.2
20260510135038 47 26 7.0 11.0 0.00 0.00 0.00 61 1022.1
20260510134535 46 344 11.0 12.0 0.00 0.00 0.00 61 1022.3
20260510134031 46 45 9.0 12.0 0.00 0.00 0.00 63 1022.1
20260510133527 45 5 9.0 12.0 0.00 0.00 0.00 65 1022.3
20260510133024 46 224 4.0 6.0 0.00 0.00 0.00 67 1022.0
20260510132521 45 324 12.0 20.0 0.00 0.00 0.00 68 1022.1
20260510132017 45 27 3.0 5.0 0.00 0.00 0.00 71 1022.0
20260510131515 45 68 5.0 8.0 0.00 0.00 0.00 71 1022.1
20260510131012 44 11 5.0 8.0 0.00 0.00 0.00 73 1021.8
20260510130508 44 320 7.0 8.0 0.00 0.00 0.00 73 1021.9
20260510130006 44 25 6.0 8.0 0.00 0.00 0.00 74 1021.7
20260510125502 44 352 4.0 6.0 0.00 0.00 0.00 74 1021.9
20260510124959 44 1 4.0 5.0 0.00 0.00 0.00 73 1021.7
20260510124455 44 54 3.0 3.0 0.00 0.00 0.00 74 1021.8
20260510123952 44 359 7.0 9.0 0.00 0.00 0.00 74 1021.8
20260510123447 44 98 6.0 11.0 0.00 0.00 0.00 75 1021.7
20260510122943 43 78 3.0 5.0 0.00 0.00 0.00 75 1021.5
20260510122439 43 208 3.0 3.0 0.00 0.00 0.00 75 1021.4
20260510121935 43 151 2.0 2.0 0.00 0.00 0.00 75 1021.7
20260510121433 43 120 2.0 3.0 0.00 0.00 0.00 75 1021.1
20260510120930 42 106 1.0 2.0 0.00 0.00 0.00 76 1021.1
20260510120427 42 155 2.0 3.0 0.00 0.00 0.00 76 1021.2
20260510115923 42 252 4.0 5.0 0.00 0.00 0.00 77 1021.3
20260510115421 42 125 1.0 2.0 0.00 0.00 0.00 78 1021.3
20260510114916 42 137 2.0 2.0 0.00 0.00 0.00 78 1021.1
20260510114413 42 129 1.0 2.0 0.00 0.00 0.00 77 1021.3
20260510113908 42 134 2.0 2.0 0.00 0.00 0.00 76 1021.1
20260510113404 42 270 3.0 3.0 0.00 0.00 0.00 75 1021.1
20260510112902 42 115 0.0 0.0 0.00 0.00 0.00 77 1020.9
20260510112359 42 105 0.0 0.0 0.00 0.00 0.00 77 1020.8
20260510111855 42 109 0.0 0.0 0.00 0.00 0.00 77 1020.7
20260510111351 41 109 0.0 0.0 0.00 0.00 0.00 77 1020.8
20260510110846 41 113 0.0 0.0 0.00 0.00 0.00 77 1020.6
20260510110343 41 121 1.0 2.0 0.00 0.00 0.00 76 1020.8
20260510105840 41 120 1.0 2.0 0.00 0.00 0.00 76 1020.5
20260510105339 41 140 2.0 3.0 0.00 0.00 0.00 78 1020.6
20260510104835 41 142 2.0 2.0 0.00 0.00 0.00 78 1020.5
20260510104333 41 175 2.0 3.0 0.00 0.00 0.00 79 1020.4
20260510103829 40 131 1.0 2.0 0.00 0.00 0.00 79 1020.3
20260510103326 40 121 1.0 2.0 0.00 0.00 0.00 79 1020.3
20260510102821 41 123 1.0 2.0 0.00 0.00 0.00 78 1020.2
20260510102317 41 150 2.0 3.0 0.00 0.00 0.00 77 1020.1
20260510101815 41 143 2.0 3.0 0.00 0.00 0.00 76 1020.2
20260510101313 41 135 2.0 2.0 0.00 0.00 0.00 75 1019.9
20260510100809 41 10 2.0 3.0 0.00 0.00 0.00 76 1019.9
20260510100307 41 139 2.0 2.0 0.00 0.00 0.00 75 1019.9
20260510095802 41 153 2.0 2.0 0.00 0.00 0.00 75 1019.7
20260510095257 41 150 2.0 2.0 0.00 0.00 0.00 76 1019.6
20260510094756 41 296 1.0 2.0 0.00 0.00 0.00 75 1019.6
20260510094252 41 116 0.0 0.0 0.00 0.00 0.00 73 1019.4
20260510093748 42 119 2.0 2.0 0.00 0.00 0.00 72 1019.5
20260510093245 42 171 2.0 2.0 0.00 0.00 0.00 71 1019.3
20260510092741 42 159 2.0 2.0 0.00 0.00 0.00 71 1019.3
20260510092237 42 94 0.0 2.0 0.00 0.00 0.00 71 1019.1
20260510091733 42 105 2.0 2.0 0.00 0.00 0.00 71 1019.3
20260510091230 42 54 1.0 2.0 0.00 0.00 0.00 70 1019.1
20260510090726 42 126 3.0 3.0 0.00 0.00 0.00 70 1019.2
20260510090224 42 88 1.0 2.0 0.00 0.00 0.00 70 1019.1
20260510085719 42 349 3.0 5.0 0.00 0.00 0.00 70 1019.1
20260510085214 42 67 2.0 3.0 0.00 0.00 0.00 70 1019.2
20260510084710 42 91 0.0 0.0 0.00 0.00 0.00 71 1019.1
20260510084207 42 90 2.0 3.0 0.00 0.00 0.00 71 1019.3
20260510083704 42 336 4.0 6.0 0.00 0.00 0.00 72 1019.1
20260510083201 42 53 3.0 3.0 0.00 0.00 0.00 73 1018.7
20260510082656 41 146 3.0 5.0 0.00 0.00 0.00 73 1018.6
20260510082152 41 198 1.0 3.0 0.00 0.00 0.00 74 1018.7
20260510081647 41 234 3.0 3.0 0.00 0.00 0.00 74 1018.5
20260510081143 40 253 3.0 3.0 0.00 0.00 0.00 76 1018.4
20260510080643 39 244 2.0 3.0 0.00 0.00 0.00 83 1018.4
20260510080140 39 9 2.0 2.0 0.00 0.00 0.00 84 1018.3
20260510075637 39 96 0.0 0.0 0.00 0.00 0.00 85 1018.2
20260510075134 39 131 0.0 0.0 0.00 0.00 0.00 85 1018.2
20260510074631 39 120 0.0 0.0 0.00 0.00 0.00 84 1018.3
20260510074126 39 131 0.0 0.0 0.00 0.00 0.00 84 1018.5
20260510073623 38 106 0.0 0.0 0.00 0.00 0.00 84 1018.2
20260510073120 38 113 0.0 0.0 0.00 0.00 0.00 85 1018.2
20260510072616 37 104 0.0 0.0 0.00 0.00 0.00 86 1018.2
20260510072113 37 105 0.0 0.0 0.00 0.00 0.00 86 1018.2
20260510071608 37 121 0.0 0.0 0.00 0.00 0.00 85 1018.3
20260510071107 37 119 0.0 0.0 0.00 0.00 0.00 85 1017.8
20260510070603 37 122 0.0 0.0 0.00 0.00 0.00 85 1017.8
20260510065557 37 114 0.0 0.0 0.00 0.00 0.00 85 1018.0
20260510065053 37 123 0.0 0.0 0.00 0.00 0.00 85 1018.0
20260510064549 37 120 0.0 0.0 0.00 0.00 0.00 85 1018.1
20260510064046 37 117 0.0 0.0 0.00 0.00 0.00 86 1017.9
20260510063543 37 109 0.0 0.0 0.00 0.00 0.00 85 1018.1
20260510063040 37 104 0.0 0.0 0.00 0.00 0.00 84 1018.1
20260510062536 37 110 0.0 0.0 0.00 0.00 0.00 85 1018.2
20260510062031 37 105 0.0 0.0 0.00 0.00 0.00 85 1017.9
20260510061528 37 106 0.0 0.0 0.00 0.00 0.00 84 1018.1
20260510061025 38 108 0.0 0.0 0.00 0.00 0.00 84 1017.8
20260510060521 37 112 0.0 0.0 0.00 0.00 0.00 83 1017.8
20260510060017 38 98 0.0 0.0 0.00 0.00 0.00 81 1017.8
20260510055514 38 100 0.0 0.0 0.00 0.00 0.00 81 1017.9
20260510055012 38 116 0.0 0.0 0.00 0.00 0.00 80 1017.8
20260510054507 38 122 0.0 0.0 0.00 0.00 0.00 80 1017.9
20260510054003 38 103 0.0 0.0 0.00 0.00 0.00 80 1018.0
20260510053457 39 109 0.0 0.0 0.00 0.00 0.00 81 1017.6
20260510052954 39 108 0.0 0.0 0.00 0.00 0.00 81 1017.6
20260510052450 39 117 0.0 0.0 0.00 0.00 0.00 82 1017.8
20260510051946 39 106 0.0 0.0 0.00 0.00 0.00 81 1017.4
20260510051442 39 106 0.0 0.0 0.00 0.00 0.00 80 1017.6
20260510050939 40 112 0.0 0.0 0.00 0.00 0.00 79 1017.5
20260510050436 40 129 0.0 0.0 0.00 0.00 0.00 78 1017.4
20260510045933 39 121 0.0 0.0 0.00 0.22 0.22 79 1017.5
20260510045430 39 105 0.0 0.0 0.00 0.22 0.22 80 1017.3
20260510044927 39 101 0.0 0.0 0.00 0.22 0.22 79 1017.2
20260510044424 39 100 0.0 0.0 0.00 0.22 0.22 77 1017.5
20260510043921 40 98 0.0 0.0 0.00 0.22 0.22 76 1017.4
20260510043417 41 101 0.0 0.0 0.00 0.22 0.22 76 1017.3
20260510042915 42 110 0.0 0.0 0.00 0.22 0.22 75 1017.3
20260510042411 42 114 0.0 0.0 0.00 0.22 0.22 73 1017.3
20260510041906 42 101 0.0 0.0 0.00 0.22 0.22 71 1017.3
20260510041404 42 109 0.0 0.0 0.00 0.22 0.22 70 1017.3
20260510040901 42 106 0.0 0.0 0.00 0.22 0.22 69 1017.4
20260510040358 43 101 0.0 0.0 0.00 0.22 0.22 66 1017.2
20260510035854 44 105 0.0 0.0 0.00 0.22 0.22 65 1017.0
20260510035350 45 125 0.0 0.0 0.00 0.22 0.22 64 1017.0
20260510034845 45 123 0.0 0.0 0.00 0.22 0.22 62 1017.0
20260510034343 46 101 0.0 0.0 0.00 0.22 0.22 60 1016.9
20260510033839 47 101 0.0 0.0 0.00 0.22 0.22 55 1017.0
20260510033336 48 95 0.0 0.0 0.00 0.22 0.22 53 1016.9
20260510032833 48 9 2.0 2.0 0.00 0.22 0.22 51 1017.0
20260510032330 49 78 0.0 0.0 0.00 0.22 0.22 50 1017.0
20260510031825 49 333 3.0 3.0 0.00 0.22 0.22 49 1016.8
20260510031321 49 78 0.0 0.0 0.00 0.22 0.22 50 1016.8
20260510030815 50 315 2.0 5.0 0.00 0.22 0.22 49 1016.7
20260510030312 50 332 4.0 5.0 0.00 0.22 0.22 48 1016.7
20260510025809 50 113 4.0 5.0 0.00 0.22 0.22 48 1016.7
20260510025307 50 101 1.0 2.0 0.00 0.22 0.22 49 1016.4
20260510024804 50 86 2.0 3.0 0.00 0.22 0.22 48 1016.6
20260510024300 50 26 2.0 3.0 0.00 0.22 0.22 48 1016.4
20260510023756 50 46 2.0 2.0 0.00 0.22 0.22 48 1016.1
20260510023253 51 47 2.0 3.0 0.00 0.22 0.22 47 1016.2
20260510022750 51 353 5.0 5.0 0.00 0.22 0.22 47 1015.9
20260510022250 51 20 1.0 3.0 0.00 0.22 0.22 47 1015.8
20260510021749 52 70 0.0 0.0 0.00 0.22 0.22 46 1016.0
20260510021247 52 317 5.0 6.0 0.00 0.22 0.22 45 1015.6
20260510020743 52 337 3.0 3.0 0.00 0.22 0.22 45 1015.4
20260510020242 53 346 4.0 5.0 0.00 0.22 0.22 44 1015.3
20260510015739 53 251 6.0 6.0 0.00 0.22 0.22 43 1015.1
20260510015236 53 37 6.0 8.0 0.00 0.22 0.22 42 1015.2
20260510014730 53 323 8.0 9.0 0.00 0.22 0.22 42 1015.1
20260510014228 53 86 5.0 6.0 0.00 0.22 0.22 43 1015.0
20260510013724 53 280 7.0 9.0 0.00 0.22 0.22 42 1014.9
20260510013219 53 49 5.0 6.0 0.00 0.22 0.22 42 1014.8
20260510012719 53 235 5.0 6.0 0.00 0.22 0.22 42 1014.7
20260510012214 54 329 6.0 9.0 0.00 0.22 0.22 41 1014.5
20260510011709 54 333 4.0 5.0 0.00 0.22 0.22 41 1014.6
20260510011205 54 317 5.0 6.0 0.00 0.22 0.22 40 1014.5
20260510010702 54 292 4.0 8.0 0.00 0.22 0.22 40 1014.4
20260510010158 54 256 7.0 9.0 0.00 0.22 0.22 39 1014.4
20260510005655 54 352 5.0 9.0 0.00 0.22 0.22 39 1014.0
20260510005151 55 31 7.0 8.0 0.00 0.22 0.22 39 1014.2
20260510004650 55 330 5.0 5.0 0.00 0.22 0.22 39 1013.8
20260510004148 55 329 11.0 14.0 0.00 0.22 0.22 38 1014.1
20260510003645 55 318 7.0 8.0 0.00 0.22 0.22 38 1014.0
20260510003140 56 12 5.0 6.0 0.00 0.22 0.22 38 1014.0
20260510002635 56 323 8.0 11.0 0.00 0.22 0.22 36 1013.5
20260510002132 55 318 10.0 12.0 0.00 0.22 0.22 37 1013.5
20260510001629 56 291 16.0 20.0 0.00 0.22 0.22 36 1013.6
20260510001128 56 301 5.0 6.0 0.00 0.22 0.22 37 1013.6
20260510000627 56 311 9.0 11.0 0.00 0.22 0.22 36 1013.5
20260510000126 57 23 11.0 12.0 0.00 0.22 0.22 36 1013.2
20260509235621 57 291 10.0 12.0 0.00 0.22 0.22 35 1013.2
20260509235118 57 273 10.0 15.0 0.00 0.22 0.22 35 1013.2
20260509234614 57 10 11.0 12.0 0.00 0.22 0.22 35 1013.4
20260509234112 57 348 13.0 19.0 0.00 0.22 0.22 35 1013.2
20260509233610 57 21 9.0 12.0 0.00 0.22 0.22 36 1012.9
20260509233107 57 351 6.0 6.0 0.00 0.22 0.22 36 1013.1
20260509232603 58 330 7.0 11.0 0.00 0.22 0.22 36 1013.1
20260509232100 57 70 5.0 8.0 0.00 0.22 0.22 36 1013.1
20260509231556 57 316 13.0 15.0 0.00 0.22 0.22 35 1012.8
20260509231054 57 288 12.0 15.0 0.00 0.22 0.22 34 1013.0
20260509230551 58 326 11.0 14.0 0.00 0.22 0.22 36 1012.9
20260509230048 57 317 3.0 5.0 0.00 0.22 0.22 36 1012.6
20260509225549 57 338 11.0 12.0 0.00 0.22 0.22 36 1012.7
20260509225044 57 356 16.0 19.0 0.00 0.22 0.22 34 1012.8
20260509224540 57 21 7.0 9.0 0.00 0.22 0.22 36 1013.0
20260509224037 58 278 10.0 14.0 0.00 0.22 0.22 36 1012.8
20260509223534 58 328 9.0 15.0 0.00 0.22 0.22 36 1012.7
20260509223032 58 324 10.0 12.0 0.00 0.22 0.22 36 1012.6
20260509222528 57 357 5.0 8.0 0.00 0.22 0.22 38 1012.8
20260509222023 58 336 14.0 19.0 0.00 0.22 0.22 37 1012.4
20260509221520 57 321 11.0 14.0 0.00 0.22 0.22 36 1012.6
20260509221016 58 345 11.0 15.0 0.00 0.22 0.22 36 1012.7
20260509220512 58 29 8.0 14.0 0.00 0.22 0.22 37 1012.5
20260509220008 57 26 9.0 9.0 0.00 0.22 0.22 37 1012.3
20260509215503 57 310 14.0 19.0 0.00 0.22 0.22 36 1012.3
20260509215001 58 1 12.0 19.0 0.00 0.22 0.22 35 1012.3
20260509214458 57 327 10.0 14.0 0.00 0.22 0.22 35 1012.4
20260509213955 57 202 5.0 6.0 0.00 0.22 0.22 36 1012.6
20260509213451 57 292 7.0 9.0 0.00 0.22 0.22 36 1012.3
20260509212948 57 310 18.0 22.0 0.00 0.22 0.22 35 1012.3
20260509212445 57 322 13.0 17.0 0.00 0.22 0.22 35 1012.4
20260509211942 57 310 12.0 17.0 0.00 0.22 0.22 37 1012.2
20260509211437 56 259 13.0 17.0 0.00 0.22 0.22 37 1012.3
20260509210934 57 308 15.0 19.0 0.00 0.22 0.22 36 1012.2
20260509210431 57 312 11.0 17.0 0.00 0.22 0.22 34 1011.9
20260509205926 57 280 18.0 23.0 0.00 0.22 0.22 35 1012.4
20260509205421 56 19 7.0 9.0 0.00 0.22 0.22 37 1012.3
20260509204917 56 298 17.0 26.0 0.00 0.22 0.22 36 1012.1
20260509204414 57 333 19.0 22.0 0.00 0.22 0.22 36 1012.1
20260509203910 57 259 17.0 22.0 0.00 0.22 0.22 38 1012.1
20260509203406 57 60 14.0 19.0 0.00 0.22 0.22 38 1012.4
20260509202904 56 12 9.0 9.0 0.00 0.22 0.22 39 1012.1
20260509202359 57 6 12.0 15.0 0.00 0.22 0.22 37 1012.0